Vorticity
10 11 13 13 14 13 12 13 11 13 12 9 7 7 11 13 10 10 7 2 1 0 3 10 13 10 12 13 8 9 6 6 8 7 6 6 8 8 8 7 12 15 12 9 8 9 9 9 9 9 9 7 4 4 4 4 4 3 3 4 6 6 4 2 1 1 1 3 3 3 5 6 9 8 6 4 4 4 6 7 7 7 7 7 6 5 5 5 5 6 8 7 7 9 10 10 10
8 8 8 9 10 9 9 10 9 11 9 6 10 6 6 8 5 7 8 6 6 10 11 7 5 5 9 10 6 8 5 6 9 7 6 7 7 8 11 9 8 10 9 9 8 9 9 10 10 9 8 5 3 4 5 4 5 4 4 4 5 5 3 1 -0 1 2 2 2 3 5 7 9 7 5 4 4 4 6 7 7 8 7 7 5 5 4 4 5 6 7 6 7 9 10 10 10
8 8 8 9 9 9 9 9 8 10 6 5 12 7 4 8 5 4 6 7 8 9 8 5 8 9 8 10 8 7 5 5 6 5 6 5 5 7 11 12 10 9 9 9 9 9 10 10 8 8 7 6 6 5 5 5 5 4 3 4 4 4 2 0 0 3 2 2 2 4 5 7 8 7 4 4 5 4 6 7 8 8 7 7 5 4 4 4 5 6 7 6 6 9 10 10 8
9 9 9 9 8 9 8 7 7 7 5 5 9 7 4 6 6 6 5 5 7 4 3 3 5 8 9 9 7 6 7 5 4 5 4 4 8 9 9 8 8 7 8 7 7 11 11 9 8 8 9 7 7 5 5 4 3 3 3 4 5 4 2 -0 1 3 2 2 3 4 5 6 8 7 4 4 5 5 6 8 9 8 7 6 5 4 4 4 5 6 7 6 6 9 9 8 7
7 8 8 8 7 7 7 5 7 7 5 6 10 8 7 7 6 4 5 7 8 5 6 4 1 9 8 4 8 6 5 5 5 5 2 5 7 13 18 16 18 12 4 5 10 12 8 8 10 9 8 7 6 5 3 2 2 4 4 5 4 2 1 1 3 3 2 3 3 4 5 7 8 6 4 3 4 5 6 8 9 8 7 6 5 4 4 4 5 6 7 6 6 8 8 6 5
6 6 7 6 7 6 6 6 7 9 7 10 12 9 6 9 8 1 3 7 5 3 4 -0 0 10 7 5 9 3 4 4 3 3 2 5 6 14 18 16 21 11 4 10 8 7 8 8 8 6 7 6 5 4 2 3 4 4 3 3 1 1 1 2 4 4 2 2 4 6 7 8 8 5 4 4 4 5 6 7 9 8 7 5 5 4 4 5 5 6 7 6 6 8 8 5 4
6 6 7 7 7 6 7 7 5 7 9 9 6 4 5 5 5 0 1 3 0 2 0 0 6 9 6 6 5 3 5 2 2 3 2 4 4 7 5 6 7 -1 13 23 12 8 9 7 6 7 7 5 4 4 4 5 6 4 2 0 0 2 3 4 5 4 2 3 5 7 8 9 7 4 3 3 5 5 5 7 8 8 7 6 5 4 4 5 5 6 6 6 6 7 7 5 3
7 8 9 8 8 8 8 8 5 4 6 8 4 2 5 3 4 5 4 3 -1 1 3 6 10 7 6 5 4 4 3 1 4 2 3 5 4 1 2 14 9 4 16 17 16 15 8 9 9 6 4 4 5 5 7 8 7 3 0 1 3 5 4 4 5 3 3 4 6 8 8 8 6 3 3 4 5 5 5 7 9 8 7 6 5 5 4 5 5 5 6 6 7 7 7 6 3
8 7 8 8 8 8 7 7 9 9 7 9 9 6 4 2 6 6 5 6 3 3 6 6 6 7 6 6 4 3 3 3 3 3 5 6 7 3 4 14 7 9 12 -4 2 9 8 11 8 9 8 5 6 9 11 8 4 2 2 5 6 5 5 4 4 3 4 4 6 8 7 7 5 4 3 4 5 5 6 8 9 8 7 6 5 5 5 5 5 5 6 5 7 8 7 5 4
8 7 7 8 7 6 5 6 10 16 17 12 6 6 5 2 4 3 4 7 7 5 6 5 4 7 6 6 5 4 5 5 5 6 5 2 6 4 6 14 2 9 17 1 -1 6 11 10 4 6 4 3 9 11 10 5 2 4 5 5 3 5 6 4 3 4 4 5 6 7 7 7 5 5 5 5 5 6 7 9 9 8 6 6 5 5 6 5 5 5 5 5 6 8 9 5 3
7 7 8 6 7 7 5 6 6 4 8 12 4 3 4 2 3 3 4 4 4 5 6 6 6 6 6 6 6 7 7 7 8 6 5 4 5 2 6 15 5 5 14 7 4 5 8 10 11 4 -4 2 6 4 4 4 6 7 4 1 3 6 6 3 3 5 5 5 7 7 7 7 7 6 5 5 5 6 7 8 8 7 6 5 5 6 6 5 5 6 6 6 5 7 10 7 3
8 8 8 7 7 6 7 7 5 -5 -8 3 3 2 3 4 5 4 5 5 6 8 6 5 5 6 7 9 8 8 6 5 7 5 5 3 4 6 7 13 6 1 5 5 5 8 9 9 13 11 8 7 1 2 4 8 11 7 2 2 4 6 4 3 3 4 5 5 7 7 6 7 8 6 5 5 4 5 6 8 8 7 6 5 6 6 6 5 5 6 6 6 5 6 10 10 5
8 8 8 9 8 7 10 6 12 11 -1 1 2 1 4 6 8 6 6 7 9 10 6 4 5 8 8 10 7 5 6 6 7 5 4 4 7 8 6 9 6 7 9 5 6 11 13 7 8 13 14 10 7 9 7 11 16 11 8 7 5 4 4 3 2 4 5 6 7 6 6 8 8 7 5 4 3 4 6 7 8 8 7 6 6 6 6 5 6 6 6 5 6 5 7 13 9
7 8 7 7 9 10 11 12 23 19 1 3 6 1 -1 4 8 8 9 7 10 10 7 5 4 5 6 6 5 5 7 6 5 4 5 9 10 8 8 9 9 11 2 -0 9 7 6 7 10 11 8 7 8 8 6 10 14 15 16 15 11 7 5 2 2 4 5 6 7 6 6 8 8 7 5 4 3 3 5 7 8 9 8 7 6 7 6 6 7 7 7 5 5 6 6 12 12
7 8 7 7 10 11 13 19 27 14 -2 6 10 1 -5 1 7 8 8 5 11 12 7 7 3 4 5 5 6 6 7 5 4 3 4 5 7 8 10 9 8 5 -5 0 11 6 5 8 7 5 6 9 6 4 6 6 5 6 10 13 15 14 12 8 4 4 6 7 6 6 7 8 9 8 6 4 3 3 6 8 9 9 9 9 8 8 7 7 8 6 6 6 4 7 6 10 15
7 8 8 8 10 13 15 14 18 9 -1 4 7 2 -4 -1 5 7 4 -0 8 12 6 6 5 4 4 3 3 3 5 4 4 4 4 5 7 7 7 8 7 6 3 5 7 6 6 4 3 4 6 6 2 2 5 6 4 1 3 7 11 14 17 18 13 6 5 8 6 6 7 8 10 8 5 3 3 4 6 7 8 9 9 10 8 7 7 7 8 7 6 6 4 6 7 8 15
8 8 8 11 11 11 11 9 13 4 -7 -0 4 2 0 0 4 9 8 5 8 9 4 3 4 3 2 2 2 4 5 5 5 5 6 7 7 6 8 8 5 6 7 5 5 7 3 1 5 6 6 3 1 2 3 4 3 3 3 3 7 10 15 22 22 11 4 6 6 6 7 8 9 7 5 4 3 6 7 8 9 8 8 8 7 6 7 7 7 7 6 5 6 5 5 4 11
8 9 10 14 11 7 4 4 7 -2 -7 -1 1 -0 3 6 9 11 7 8 9 5 3 3 4 3 1 -0 1 5 7 6 5 4 6 8 8 7 8 7 6 6 5 3 3 5 4 4 7 6 5 2 3 4 4 4 2 3 0 0 11 14 13 21 28 18 5 5 6 6 8 9 9 6 6 5 4 7 11 12 9 7 7 6 7 7 6 7 6 7 6 6 6 5 5 2 2
8 8 11 11 8 10 6 2 -4 -9 -4 -1 0 5 12 18 16 9 2 7 11 6 3 2 3 2 -0 1 4 10 10 8 7 8 9 8 9 8 7 7 6 7 5 4 4 6 6 4 4 3 1 0 4 5 5 6 4 6 1 1 16 20 12 19 30 18 3 6 8 7 7 7 7 6 5 5 6 8 9 7 7 8 9 7 6 6 5 6 7 6 6 6 7 6 5 3 -1
9 5 14 13 6 7 5 6 -1 -7 2 2 4 10 15 17 8 2 1 5 8 7 6 2 1 3 4 7 8 11 12 10 10 10 8 7 9 7 7 7 6 7 7 7 6 7 6 5 5 2 2 5 9 9 6 5 5 5 2 6 18 19 10 18 29 17 5 9 8 5 5 6 7 6 5 5 7 8 7 7 11 11 8 7 6 6 7 6 6 6 7 7 8 8 5 6 7
10 9 14 8 1 1 -1 4 2 -0 6 5 7 7 6 4 -0 3 6 7 8 7 8 7 6 7 10 12 10 11 10 9 8 6 6 6 4 3 6 5 5 9 9 8 6 6 5 4 4 4 6 7 10 11 8 6 7 6 6 12 16 13 10 15 22 15 11 11 7 4 3 5 6 6 6 7 8 8 10 11 12 10 7 8 8 8 7 6 6 6 8 9 8 8 6 6 7
8 11 7 2 4 8 4 3 5 8 9 7 8 6 2 0 2 6 5 9 11 7 7 6 6 7 9 11 10 8 6 7 8 7 9 9 6 5 7 3 5 10 7 3 4 5 4 4 6 7 6 7 9 10 9 8 9 8 11 19 17 11 10 10 7 7 12 12 7 6 5 6 6 5 5 8 10 8 10 11 10 10 9 8 6 6 6 6 7 7 8 10 10 5 4 3 2
9 11 6 4 7 8 9 10 10 11 11 11 9 5 5 3 5 6 5 7 7 8 9 4 4 7 8 10 10 7 8 10 10 10 11 15 14 12 15 10 6 8 3 -0 5 5 3 7 7 6 7 10 12 13 12 12 13 10 14 28 22 12 18 15 -1 -2 9 10 8 6 5 6 6 6 6 8 10 12 12 10 8 8 6 5 5 5 6 7 6 8 9 10 8 4 4 3 3
9 10 8 6 6 7 6 5 5 8 13 14 7 5 7 5 4 5 6 7 6 10 10 5 5 6 10 14 11 8 9 8 7 9 9 6 4 12 23 16 10 11 2 -1 5 5 5 6 6 9 15 16 20 24 19 15 17 14 21 33 19 8 21 14 -7 -1 10 6 6 5 6 8 7 7 8 9 13 15 12 7 7 7 5 5 6 5 6 8 8 9 10 9 8 7 6 6 9
9 9 8 7 8 8 3 2 5 9 13 9 5 7 7 6 6 5 7 9 10 10 8 7 6 6 12 15 9 8 9 8 7 9 10 7 6 13 12 6 15 15 1 1 5 4 6 6 9 13 12 11 16 21 20 18 20 21 25 26 12 7 12 4 -4 5 10 6 9 7 6 7 7 9 7 11 18 13 7 5 7 7 5 5 5 5 7 10 11 11 10 9 7 6 7 9 11
10 6 5 5 5 5 6 8 8 8 9 8 7 8 7 7 6 7 10 10 10 6 2 6 9 8 11 10 6 8 9 8 9 10 15 19 15 11 10 18 27 13 2 7 6 6 7 5 11 13 11 12 11 13 19 21 21 22 21 16 11 7 4 6 9 8 7 10 12 7 7 12 19 24 17 16 17 8 5 7 8 6 3 4 4 7 10 11 12 11 8 8 7 7 9 9 8
10 7 6 6 6 7 8 9 10 11 10 10 10 8 7 7 6 8 10 7 5 2 0 6 10 9 12 11 8 8 9 8 10 12 12 13 10 11 23 31 15 -4 0 9 9 9 6 7 12 10 11 8 4 15 24 24 25 25 22 12 1 -6 -1 13 14 9 11 14 12 10 14 19 26 27 17 12 8 5 8 7 5 4 4 7 10 11 12 12 13 11 7 8 10 9 8 7 8
9 9 9 8 8 8 10 11 12 11 9 10 9 7 7 8 8 7 5 3 3 2 2 5 6 6 9 10 8 8 10 11 11 11 7 4 6 7 7 3 -10 -17 -3 10 13 9 5 10 14 13 12 6 9 19 16 12 15 18 18 9 -5 -11 2 17 14 11 14 11 10 14 18 16 16 15 10 9 7 6 7 3 3 6 10 12 12 12 11 10 10 10 9 9 10 8 8 10 7
6 7 8 7 6 7 10 11 8 6 9 10 6 6 8 8 6 3 2 3 5 4 4 8 10 9 9 9 9 8 8 9 10 9 6 5 6 4 2 5 3 -6 0 12 8 5 8 11 15 16 10 9 19 17 5 2 0 8 18 14 3 -2 11 19 9 7 11 9 8 10 13 11 11 10 5 6 7 7 5 4 9 11 12 11 9 11 10 10 9 8 10 10 8 7 7 8 8
6 7 7 6 8 12 11 8 6 8 10 7 3 4 6 3 0 2 6 6 6 5 7 14 15 13 12 9 7 7 6 7 9 8 6 5 2 4 8 11 5 -5 4 13 7 8 12 14 16 10 4 11 20 12 8 4 -12 -4 21 25 14 9 22 22 6 6 10 9 10 9 9 9 11 8 5 8 9 11 11 9 10 10 10 8 7 7 7 11 12 11 13 12 11 9 10 12 15
7 9 9 9 11 12 9 6 5 8 7 4 4 4 2 -0 -2 2 6 6 7 6 9 13 11 12 14 15 13 10 7 5 7 7 5 4 4 10 14 12 11 11 12 6 2 7 7 12 11 2 8 17 15 11 10 5 -8 -5 12 21 23 23 24 14 3 8 9 8 10 9 9 8 8 11 14 14 9 8 10 7 7 9 8 6 4 5 8 11 12 13 14 13 15 14 14 14 11
7 5 6 8 9 8 8 8 6 7 7 1 0 0 3 8 8 8 7 5 3 2 7 10 10 10 8 10 11 11 13 10 7 7 7 7 8 13 14 15 22 26 28 21 14 11 2 5 6 5 16 16 13 14 8 10 9 4 5 10 19 20 13 5 4 6 5 7 9 6 7 7 9 14 15 10 7 4 1 3 7 8 8 3 3 7 9 10 9 11 11 11 14 8 6 9 5
5 4 6 5 6 7 7 6 -1 2 11 12 6 2 6 16 15 9 9 7 3 5 9 10 11 8 5 6 5 8 15 16 13 9 9 10 8 9 10 13 15 9 18 25 17 15 13 10 9 10 11 7 13 11 4 15 12 -1 4 10 12 12 6 5 6 5 7 8 5 5 6 9 11 13 10 6 5 -1 -2 6 6 7 11 4 4 9 10 10 7 8 9 10 11 4 5 12 10
7 8 9 9 9 8 9 10 4 1 9 14 11 6 2 8 10 6 10 11 5 4 3 6 8 4 4 8 6 6 7 8 12 11 8 8 9 10 11 13 13 7 12 14 7 13 23 16 7 9 8 7 16 7 -3 7 7 3 10 6 3 8 7 7 8 8 11 10 6 6 8 9 10 11 9 5 1 -3 3 10 5 8 11 2 6 12 10 10 6 6 10 10 11 8 7 10 6
10 9 9 12 10 10 23 29 21 13 7 6 8 6 -0 2 11 14 14 12 6 -0 -4 1 5 2 5 8 8 8 6 6 7 10 10 6 8 14 14 12 10 17 22 17 5 1 9 11 6 11 11 8 12 8 2 5 9 11 9 2 3 9 5 0 5 7 8 10 5 5 8 6 7 7 3 1 1 3 7 8 7 11 9 3 11 12 7 7 6 7 8 8 10 9 7 6 4
8 6 4 4 -5 1 23 21 13 13 7 5 7 8 5 -0 9 20 15 5 3 -1 -4 3 4 4 7 8 10 8 6 7 2 10 11 3 17 23 14 10 6 11 21 21 10 -6 -2 12 15 13 9 9 10 10 15 17 16 9 2 5 3 3 7 1 0 6 8 9 3 3 6 3 3 3 1 4 5 6 8 7 13 18 8 3 11 10 7 7 8 8 7 9 9 7 8 7 6
7 5 3 5 -7 -7 8 1 1 8 3 6 8 8 7 -0 5 17 12 3 6 6 2 5 5 6 7 5 9 8 9 11 5 10 8 6 27 19 -6 3 10 11 21 20 9 1 3 9 16 16 12 14 10 6 6 2 10 12 4 15 12 -2 6 10 7 6 6 9 7 6 6 2 3 4 5 9 8 8 10 10 19 18 3 3 11 11 8 5 7 8 7 11 11 6 9 10 8
7 6 6 11 1 -1 7 4 9 7 -5 -1 2 2 5 3 -1 -2 1 -3 -2 6 7 6 6 4 6 5 4 4 8 13 10 11 9 12 21 0 -19 0 12 14 22 11 1 15 18 5 9 13 9 13 11 10 10 2 11 9 -15 -0 27 21 13 14 12 4 -2 2 5 5 6 6 6 6 6 9 10 10 10 13 17 6 -3 6 14 12 8 6 8 7 6 12 11 5 7 8 7
7 7 8 11 6 6 1 -0 20 21 5 3 3 3 3 2 0 6 23 17 3 6 5 4 7 2 4 11 12 7 5 6 8 11 11 11 10 -0 -0 10 10 14 22 7 -5 15 20 5 9 11 7 12 8 6 12 12 14 7 -15 -17 2 14 16 17 21 16 7 5 8 8 7 9 11 11 11 11 9 7 10 15 9 -3 -0 13 14 10 10 8 7 6 8 10 6 4 4 5 7
7 5 7 11 12 15 0 -11 6 13 7 7 10 10 2 -0 2 7 18 16 16 23 11 0 4 3 2 5 7 8 7 4 6 12 13 11 6 6 12 13 11 18 23 4 -15 -5 3 2 13 16 13 13 7 4 6 5 5 6 9 2 -8 -9 -8 -4 4 9 10 12 13 12 11 9 10 11 11 8 7 11 16 12 1 -0 10 15 10 9 11 9 6 6 7 6 4 4 4 5 8
7 3 6 8 9 16 9 -10 -19 -12 -0 1 2 6 2 2 2 -2 3 11 23 31 21 9 6 6 5 4 5 8 11 9 6 9 13 12 10 10 10 6 7 19 25 6 -16 -17 -13 -5 7 7 6 4 1 9 11 6 7 6 8 11 10 3 -6 -7 -4 -5 0 8 8 9 10 8 6 6 6 5 10 16 14 5 2 8 12 9 5 7 10 9 8 8 6 6 8 8 6 7 9
9 9 7 4 8 15 14 -1 -14 -0 14 -2 -10 1 1 -1 2 5 14 22 24 23 21 20 17 8 -6 -6 5 5 5 7 5 9 14 11 8 12 13 8 4 11 19 10 -5 -12 -17 -6 9 2 -1 3 -2 -0 7 10 12 10 7 9 14 13 9 11 9 1 0 3 4 4 5 6 6 6 6 8 10 9 5 4 8 10 8 7 6 6 6 6 7 6 5 7 9 8 8 9 10
8 13 12 8 12 16 16 12 -1 -0 6 -6 -7 7 5 1 5 9 11 14 17 15 11 13 25 28 9 -1 6 9 13 15 10 11 12 7 4 8 15 12 4 4 12 11 4 4 2 6 16 11 3 11 14 6 5 11 12 9 6 3 5 10 14 16 15 12 9 6 5 5 5 6 6 7 9 10 9 7 7 9 10 9 9 8 8 7 4 5 5 5 9 10 6 7 10 10 10
7 13 14 10 10 8 8 13 12 6 3 3 6 4 -1 3 10 12 11 14 15 8 0 -3 5 21 23 15 14 18 24 26 22 16 13 13 11 8 11 13 7 1 5 6 -1 7 15 7 5 10 4 3 13 13 8 9 10 11 8 2 2 6 11 14 13 13 12 12 10 7 8 9 7 8 9 11 14 12 9 10 10 9 7 6 7 7 5 7 8 7 12 9 2 8 13 10 9
16 24 14 5 9 14 11 12 21 19 4 11 19 -3 -16 -4 8 9 9 16 19 9 4 5 2 3 6 7 9 9 8 15 21 17 14 23 25 16 12 15 11 2 3 7 4 9 15 1 -8 4 8 1 2 9 12 9 4 6 8 3 3 7 9 10 10 9 9 12 13 9 8 8 8 10 9 12 16 15 10 9 10 10 10 7 6 6 6 9 11 8 10 9 5 10 12 9 9
15 34 21 9 9 5 3 6 19 20 3 13 29 6 -15 -6 12 17 9 10 20 15 2 1 4 0 -2 3 7 2 -1 6 11 8 8 17 23 20 17 16 11 5 4 6 6 10 13 6 1 7 7 -1 0 7 11 12 10 14 20 16 9 9 9 7 7 7 10 13 11 8 8 6 6 10 11 8 7 15 21 16 10 11 13 9 7 7 7 9 11 10 10 11 11 11 9 7 7
10 30 19 8 5 -6 -5 2 7 10 8 19 34 23 4 0 10 20 12 3 12 20 13 2 -1 1 1 2 -3 -6 2 8 7 7 9 10 10 10 11 11 8 6 10 12 11 11 12 8 2 4 5 4 8 9 8 14 13 8 16 24 19 14 14 12 10 6 7 12 10 7 7 7 8 10 10 4 1 12 20 15 14 16 11 7 8 8 9 10 11 13 13 12 10 9 7 6 6
8 21 15 7 8 7 10 7 -5 -7 4 19 31 29 17 4 2 8 10 6 5 10 13 6 3 8 10 7 -0 -3 1 1 0 8 13 13 9 6 8 10 7 7 9 11 10 6 11 12 5 5 10 12 13 9 9 19 15 -8 -9 8 11 7 10 14 17 12 7 9 9 9 8 8 11 10 8 4 4 12 10 5 11 10 1 6 11 8 10 11 11 12 12 10 9 7 6 6 6
17 15 11 9 8 8 7 2 -6 -7 1 13 17 16 13 8 4 5 7 9 5 2 4 5 5 8 9 11 12 9 2 -4 -2 5 5 4 3 3 6 4 1 5 5 5 9 9 9 11 14 20 19 10 8 7 7 16 20 2 -7 1 6 3 2 9 17 14 10 10 10 10 9 7 9 9 8 6 8 16 9 0 4 2 0 10 13 10 10 9 8 9 9 8 8 7 7 8 8
25 14 7 11 11 8 3 -1 0 1 4 10 12 11 12 10 6 4 3 4 5 3 2 3 5 5 5 10 15 13 5 -2 -3 1 2 4 7 11 18 15 8 9 10 13 16 14 14 13 14 23 22 9 3 4 5 10 19 14 4 6 12 12 4 4 11 9 6 11 10 10 10 7 10 11 11 10 11 13 5 0 8 9 8 11 11 11 10 7 7 8 8 9 10 10 10 10 11
14 14 16 19 15 12 7 4 7 10 11 9 6 5 7 10 10 8 7 4 4 4 4 7 12 13 9 6 8 8 6 4 3 5 9 13 12 9 14 19 19 15 14 20 19 11 11 11 9 11 10 4 2 5 6 7 11 13 10 10 12 18 13 3 6 6 3 8 11 12 11 7 10 12 11 12 12 8 4 8 14 10 7 9 10 11 9 6 7 8 9 11 11 11 9 9 11
5 3 9 13 15 14 10 10 9 5 5 5 4 4 3 6 10 12 13 9 7 8 7 9 13 14 9 3 3 7 12 13 9 7 10 11 9 7 7 10 14 15 14 19 21 17 13 5 2 3 3 5 4 3 6 7 6 2 2 8 9 14 18 9 4 6 4 6 10 12 13 12 12 10 9 12 12 7 8 13 13 6 5 7 9 11 9 7 8 7 8 8 6 6 4 3 4
12 3 3 5 14 18 11 15 17 6 1 1 3 7 7 6 5 4 6 8 10 8 3 3 7 9 8 8 9 12 15 13 7 8 12 12 10 12 15 14 15 15 17 19 17 19 18 10 8 5 3 6 3 3 6 3 4 -0 -5 8 14 13 17 13 7 7 6 5 8 11 14 15 14 12 11 12 10 9 11 13 10 6 6 7 8 10 9 8 9 8 6 3 2 2 3 3 3
7 3 4 -1 6 17 11 7 9 7 5 1 1 7 9 8 9 9 9 9 10 10 7 6 9 10 10 11 11 12 14 12 8 10 13 12 12 14 16 20 25 23 21 24 25 27 20 8 9 9 6 6 2 4 3 -4 8 12 -2 4 13 11 18 19 11 9 9 8 10 12 11 11 13 14 15 14 11 10 9 7 5 5 5 7 9 10 9 8 8 6 4 3 2 1 2 5 6
5 4 5 3 6 15 16 9 3 3 5 3 5 14 12 7 7 10 11 8 7 12 13 8 6 9 13 15 12 11 14 14 11 11 11 7 5 7 9 17 29 32 29 21 15 22 22 9 8 10 6 5 2 2 1 -2 7 7 0 14 19 8 10 13 10 10 11 13 14 11 8 12 19 20 18 14 8 8 8 5 4 4 4 6 9 9 9 8 7 3 2 2 3 3 3 6 7
16 10 1 6 10 5 5 9 7 7 7 2 3 11 14 11 8 5 7 10 10 9 5 5 8 9 12 15 13 11 12 12 10 9 8 7 7 9 11 14 21 29 44 45 29 27 26 11 7 8 4 3 3 2 5 6 3 -3 7 24 20 10 13 11 7 6 6 12 14 11 11 16 19 17 14 9 4 6 9 6 6 8 7 7 8 8 8 7 7 4 1 0 2 6 7 7 7
19 17 -3 -5 8 8 3 3 2 5 11 10 6 6 4 5 6 6 9 11 11 7 2 6 10 6 9 15 14 11 7 11 20 18 8 6 14 17 7 1 7 15 28 35 29 34 37 20 12 14 11 8 8 8 10 9 6 10 19 13 -0 4 14 13 8 2 0 8 13 17 21 15 6 6 10 13 12 13 12 6 3 6 10 10 7 8 9 7 7 5 2 1 2 6 8 8 9
18 22 8 -2 6 11 6 5 6 3 3 7 11 11 7 6 4 4 8 9 7 8 9 11 7 4 15 23 17 10 6 12 27 31 20 10 10 15 5 -5 7 18 15 6 -1 11 24 17 12 14 11 8 7 7 9 8 10 22 29 20 10 9 8 10 12 4 2 9 12 16 17 7 1 4 8 13 17 16 12 8 7 9 13 13 9 9 9 8 7 6 4 3 4 5 7 8 9
Height
5856 5856 5857 5858 5859 5859 5860 5862 5863 5864 5865 5867 5867 5867 5867 5868 5868 5868 5867 5864 5865 5868 5871 5874 5874 5874 5875 5875 5872 5872 5874 5873 5874 5873 5870 5870 5872 5870 5868 5867 5866 5865 5863 5861 5862 5862 5862 5862 5863 5864 5866 5866 5866 5867 5867 5868 5868 5869 5869 5869 5869 5869 5870 5870 5869 5869 5868 5868 5867 5866 5866 5865 5864 5864 5863 5863 5862 5861 5860 5860 5859 5858 5858 5857 5857 5856 5856 5855 5855 5855 5854 5854 5853 5853 5852 5851 5850
5853 5854 5855 5855 5856 5857 5858 5860 5861 5862 5864 5865 5864 5866 5865 5865 5865 5862 5862 5862 5865 5869 5871 5872 5873 5872 5872 5871 5870 5870 5872 5872 5871 5870 5869 5868 5869 5866 5864 5863 5861 5859 5857 5857 5858 5860 5860 5861 5862 5864 5865 5865 5865 5866 5866 5866 5867 5867 5868 5868 5868 5869 5869 5869 5868 5868 5867 5866 5866 5865 5864 5864 5863 5863 5862 5862 5861 5860 5859 5859 5858 5858 5857 5856 5856 5855 5855 5855 5854 5854 5854 5853 5853 5852 5852 5851 5850
5851 5852 5852 5853 5854 5856 5856 5858 5859 5860 5863 5863 5863 5863 5862 5862 5861 5859 5861 5862 5865 5868 5869 5870 5871 5871 5869 5869 5868 5869 5870 5870 5869 5868 5867 5865 5865 5862 5859 5857 5855 5854 5854 5855 5857 5858 5860 5861 5862 5864 5864 5864 5864 5864 5864 5865 5866 5866 5867 5867 5867 5867 5868 5868 5867 5867 5866 5866 5865 5864 5863 5862 5862 5862 5861 5861 5860 5859 5858 5858 5857 5857 5856 5856 5855 5855 5854 5854 5854 5853 5853 5853 5853 5852 5852 5851 5851
5848 5849 5850 5851 5852 5854 5855 5856 5857 5858 5861 5860 5861 5861 5860 5860 5858 5858 5861 5863 5865 5866 5867 5868 5868 5867 5867 5866 5866 5867 5867 5868 5867 5865 5864 5860 5858 5857 5854 5851 5849 5850 5853 5855 5857 5859 5861 5862 5863 5863 5863 5863 5863 5863 5864 5864 5865 5865 5865 5866 5866 5866 5867 5867 5866 5866 5865 5864 5864 5863 5862 5861 5861 5860 5860 5859 5859 5858 5858 5857 5856 5856 5855 5855 5854 5854 5854 5853 5853 5853 5853 5853 5853 5852 5852 5851 5851
5846 5847 5848 5850 5850 5852 5853 5854 5855 5856 5857 5857 5858 5859 5858 5857 5856 5858 5861 5862 5864 5863 5864 5865 5865 5865 5865 5864 5864 5864 5864 5865 5864 5862 5862 5858 5855 5854 5853 5851 5850 5852 5855 5857 5859 5861 5861 5862 5862 5862 5862 5862 5862 5863 5863 5863 5864 5864 5864 5865 5865 5866 5866 5866 5865 5864 5864 5863 5863 5862 5861 5860 5860 5859 5859 5858 5858 5857 5857 5856 5856 5855 5855 5854 5854 5853 5853 5853 5853 5852 5852 5852 5852 5852 5852 5851 5851
5844 5845 5846 5847 5848 5850 5851 5852 5854 5854 5854 5854 5856 5856 5855 5855 5854 5858 5860 5860 5862 5861 5862 5863 5863 5863 5863 5863 5862 5862 5861 5862 5862 5861 5860 5857 5855 5856 5855 5855 5855 5856 5857 5859 5861 5861 5861 5861 5861 5862 5862 5862 5862 5862 5862 5862 5863 5863 5864 5865 5865 5864 5864 5864 5863 5863 5862 5862 5862 5861 5860 5859 5859 5858 5858 5857 5857 5857 5856 5856 5855 5854 5854 5854 5853 5853 5853 5852 5852 5852 5852 5852 5852 5852 5852 5851 5851
5842 5843 5844 5845 5846 5848 5849 5851 5852 5852 5852 5851 5853 5853 5852 5853 5854 5856 5858 5859 5860 5860 5860 5861 5861 5861 5861 5860 5859 5861 5860 5860 5860 5858 5857 5855 5855 5855 5854 5854 5855 5855 5856 5857 5859 5860 5860 5861 5861 5862 5861 5862 5861 5861 5862 5862 5863 5863 5864 5863 5863 5862 5862 5861 5861 5861 5861 5861 5861 5860 5859 5858 5858 5857 5857 5856 5856 5856 5856 5855 5854 5854 5854 5853 5853 5852 5852 5852 5852 5851 5851 5851 5851 5851 5851 5851 5851
5839 5840 5842 5843 5844 5846 5847 5849 5849 5850 5850 5849 5851 5851 5849 5852 5854 5854 5856 5857 5858 5858 5858 5858 5859 5860 5860 5858 5857 5860 5859 5857 5857 5856 5855 5854 5854 5853 5852 5852 5853 5853 5854 5855 5856 5857 5859 5860 5861 5861 5861 5861 5861 5862 5862 5862 5862 5862 5862 5861 5861 5860 5860 5860 5860 5860 5860 5860 5859 5859 5857 5857 5857 5856 5856 5856 5856 5855 5855 5854 5853 5853 5853 5853 5852 5852 5851 5851 5851 5851 5851 5851 5851 5851 5851 5851 5851
5837 5838 5839 5841 5842 5844 5845 5846 5847 5848 5848 5848 5849 5849 5848 5850 5852 5854 5855 5856 5856 5856 5856 5855 5856 5858 5858 5855 5855 5857 5857 5856 5855 5854 5854 5853 5852 5852 5851 5851 5852 5852 5852 5853 5855 5855 5857 5858 5859 5859 5860 5861 5861 5862 5862 5862 5862 5861 5861 5860 5860 5860 5859 5859 5859 5859 5858 5858 5858 5857 5856 5856 5855 5855 5855 5855 5855 5855 5854 5854 5853 5852 5852 5852 5852 5851 5851 5851 5850 5850 5850 5850 5850 5850 5850 5850 5851
5835 5836 5837 5839 5840 5842 5843 5844 5844 5845 5845 5846 5846 5846 5847 5847 5849 5853 5853 5853 5854 5854 5854 5853 5854 5856 5856 5853 5852 5854 5856 5855 5853 5851 5852 5851 5850 5850 5850 5850 5850 5851 5850 5851 5853 5854 5854 5856 5857 5858 5859 5860 5860 5861 5861 5861 5861 5860 5860 5860 5859 5859 5858 5858 5858 5858 5857 5857 5857 5856 5855 5855 5854 5854 5854 5854 5854 5854 5854 5853 5852 5851 5851 5851 5851 5851 5850 5850 5850 5850 5849 5850 5850 5850 5849 5850 5850
5832 5834 5835 5836 5838 5839 5840 5841 5841 5841 5841 5842 5843 5844 5845 5845 5847 5849 5850 5851 5852 5852 5851 5850 5852 5854 5853 5850 5850 5853 5855 5853 5850 5850 5850 5849 5849 5850 5850 5849 5849 5850 5849 5849 5850 5851 5853 5854 5856 5857 5857 5858 5858 5859 5859 5859 5859 5859 5859 5858 5858 5858 5857 5857 5857 5856 5856 5855 5855 5854 5854 5853 5853 5853 5853 5853 5853 5853 5853 5852 5851 5851 5850 5850 5850 5850 5850 5849 5849 5849 5849 5849 5849 5849 5849 5849 5849
5830 5831 5832 5834 5835 5836 5837 5838 5838 5837 5838 5839 5840 5841 5842 5844 5846 5845 5847 5850 5850 5850 5848 5847 5850 5851 5849 5848 5849 5853 5853 5850 5847 5847 5848 5848 5848 5849 5849 5848 5848 5848 5848 5848 5849 5850 5852 5853 5854 5856 5856 5856 5856 5856 5856 5857 5857 5857 5856 5856 5856 5856 5856 5855 5855 5854 5854 5854 5853 5853 5852 5852 5852 5852 5852 5852 5852 5852 5852 5851 5850 5850 5849 5849 5849 5849 5849 5849 5849 5848 5848 5848 5848 5848 5848 5848 5848
5827 5828 5830 5831 5832 5833 5834 5835 5835 5834 5836 5838 5837 5837 5838 5842 5845 5844 5846 5847 5847 5847 5846 5846 5848 5848 5846 5846 5848 5851 5851 5847 5844 5844 5846 5846 5846 5847 5847 5847 5846 5846 5846 5847 5847 5849 5850 5851 5852 5853 5853 5853 5853 5854 5854 5854 5854 5854 5854 5853 5854 5853 5853 5853 5853 5852 5852 5852 5851 5851 5851 5851 5851 5851 5851 5851 5850 5850 5850 5850 5849 5849 5848 5848 5849 5849 5848 5848 5848 5848 5848 5847 5847 5847 5847 5847 5848
5825 5826 5827 5829 5830 5831 5832 5833 5833 5833 5834 5836 5834 5833 5835 5840 5843 5843 5844 5845 5845 5845 5845 5844 5846 5846 5845 5844 5846 5848 5847 5845 5843 5843 5844 5844 5844 5845 5845 5845 5844 5844 5845 5845 5846 5847 5848 5849 5849 5850 5850 5850 5850 5851 5851 5851 5851 5851 5850 5851 5851 5851 5850 5850 5850 5850 5850 5850 5849 5849 5849 5849 5849 5850 5850 5849 5849 5849 5848 5848 5848 5847 5847 5847 5848 5848 5847 5847 5847 5847 5847 5846 5846 5846 5846 5846 5847
5822 5824 5825 5827 5828 5829 5831 5831 5831 5831 5833 5832 5831 5830 5832 5838 5842 5841 5842 5844 5843 5843 5843 5843 5843 5843 5843 5842 5844 5845 5843 5842 5842 5842 5841 5841 5842 5842 5843 5842 5842 5843 5843 5843 5844 5845 5845 5846 5846 5846 5846 5846 5847 5847 5848 5848 5848 5848 5847 5847 5848 5848 5848 5847 5847 5848 5848 5847 5847 5847 5848 5848 5848 5848 5848 5848 5847 5847 5847 5847 5846 5846 5846 5846 5846 5846 5846 5846 5846 5846 5846 5845 5845 5845 5845 5846 5846
5819 5821 5823 5825 5826 5827 5828 5829 5828 5829 5830 5829 5828 5828 5830 5835 5839 5839 5840 5841 5840 5840 5841 5841 5840 5840 5840 5840 5843 5843 5840 5839 5839 5839 5839 5839 5839 5840 5840 5840 5841 5841 5841 5841 5842 5842 5843 5843 5843 5843 5843 5844 5844 5845 5845 5846 5845 5845 5844 5844 5845 5845 5845 5844 5844 5846 5846 5845 5845 5846 5846 5846 5847 5847 5846 5846 5846 5845 5845 5845 5845 5844 5844 5845 5845 5845 5845 5845 5845 5845 5845 5844 5844 5844 5844 5845 5845
5817 5818 5821 5822 5822 5824 5824 5825 5826 5826 5827 5826 5826 5827 5829 5833 5835 5836 5838 5837 5837 5838 5839 5840 5837 5836 5837 5838 5841 5841 5838 5837 5836 5836 5837 5837 5837 5837 5838 5838 5839 5839 5839 5839 5840 5840 5840 5840 5840 5840 5841 5841 5842 5842 5843 5843 5843 5842 5841 5841 5842 5842 5842 5841 5841 5843 5843 5843 5844 5844 5845 5845 5845 5845 5845 5845 5844 5844 5843 5843 5843 5843 5843 5844 5843 5843 5844 5844 5844 5844 5844 5844 5843 5843 5844 5844 5844
5815 5816 5819 5819 5819 5820 5821 5821 5822 5824 5825 5824 5825 5827 5828 5831 5833 5833 5834 5834 5833 5836 5837 5837 5835 5833 5835 5836 5838 5839 5837 5834 5833 5834 5834 5834 5835 5835 5836 5836 5837 5837 5837 5837 5837 5837 5837 5837 5837 5837 5837 5838 5839 5839 5840 5840 5840 5839 5838 5838 5839 5839 5838 5838 5838 5840 5841 5842 5842 5843 5843 5843 5843 5843 5843 5843 5843 5842 5842 5841 5841 5842 5842 5842 5842 5842 5842 5843 5843 5843 5843 5843 5842 5842 5842 5843 5843
5812 5814 5816 5815 5816 5817 5818 5818 5818 5820 5823 5822 5824 5826 5828 5830 5831 5830 5831 5831 5831 5834 5835 5833 5832 5832 5833 5834 5836 5836 5834 5832 5831 5831 5831 5831 5832 5833 5834 5834 5834 5835 5835 5835 5835 5835 5834 5834 5834 5833 5834 5835 5836 5836 5836 5837 5836 5836 5835 5835 5836 5836 5835 5835 5836 5838 5839 5840 5841 5841 5841 5841 5841 5841 5841 5841 5840 5840 5840 5840 5840 5840 5841 5841 5841 5841 5841 5841 5841 5842 5842 5841 5841 5841 5841 5841 5842
5810 5812 5813 5812 5814 5814 5815 5816 5815 5818 5821 5821 5822 5825 5827 5829 5828 5827 5828 5829 5828 5831 5832 5830 5830 5830 5831 5833 5834 5833 5831 5829 5828 5828 5828 5828 5829 5830 5831 5831 5831 5832 5832 5832 5832 5832 5832 5831 5831 5831 5831 5832 5834 5834 5834 5833 5833 5832 5832 5833 5833 5832 5832 5832 5834 5835 5837 5838 5839 5839 5839 5839 5839 5839 5840 5839 5839 5838 5839 5839 5839 5839 5840 5840 5840 5840 5840 5840 5840 5840 5840 5840 5840 5839 5840 5840 5840
5807 5810 5809 5809 5811 5811 5811 5813 5814 5817 5818 5819 5821 5822 5824 5826 5825 5825 5827 5826 5826 5829 5829 5828 5827 5827 5829 5831 5831 5830 5827 5826 5826 5825 5825 5826 5827 5828 5828 5828 5829 5829 5829 5830 5830 5830 5829 5828 5828 5828 5828 5829 5830 5831 5831 5830 5829 5829 5829 5830 5830 5829 5829 5830 5831 5833 5835 5836 5836 5837 5837 5837 5837 5838 5838 5838 5837 5837 5837 5837 5837 5838 5838 5838 5838 5838 5839 5839 5839 5839 5839 5839 5839 5838 5838 5838 5838
5805 5807 5806 5806 5809 5809 5809 5811 5813 5815 5816 5818 5819 5819 5820 5822 5823 5823 5825 5824 5824 5825 5826 5827 5824 5824 5827 5827 5828 5827 5824 5823 5823 5822 5823 5823 5825 5826 5827 5827 5827 5827 5827 5827 5827 5827 5826 5826 5826 5826 5826 5826 5827 5828 5828 5827 5826 5826 5826 5826 5826 5825 5826 5828 5829 5831 5832 5833 5834 5834 5834 5835 5835 5835 5836 5836 5835 5835 5835 5836 5836 5836 5836 5837 5837 5837 5837 5837 5837 5838 5838 5838 5837 5837 5837 5836 5837
5803 5803 5803 5804 5806 5807 5808 5810 5811 5813 5815 5816 5817 5817 5818 5819 5821 5821 5822 5823 5821 5822 5823 5824 5822 5822 5824 5823 5824 5825 5822 5821 5820 5821 5821 5821 5823 5824 5824 5825 5825 5825 5824 5825 5825 5824 5824 5824 5824 5824 5823 5824 5825 5825 5825 5824 5823 5823 5822 5822 5822 5822 5823 5825 5827 5828 5829 5830 5831 5832 5832 5832 5833 5833 5833 5833 5833 5833 5833 5834 5835 5835 5835 5835 5835 5835 5836 5836 5836 5836 5836 5836 5836 5836 5835 5835 5835
5800 5801 5801 5802 5803 5805 5806 5807 5808 5811 5814 5814 5814 5815 5816 5817 5818 5819 5820 5821 5820 5819 5819 5819 5819 5822 5823 5820 5820 5822 5820 5818 5818 5818 5818 5819 5820 5821 5820 5821 5822 5822 5823 5823 5822 5822 5821 5822 5822 5821 5821 5821 5822 5822 5821 5820 5820 5819 5819 5819 5819 5819 5820 5822 5825 5826 5827 5828 5829 5829 5829 5830 5830 5831 5831 5831 5832 5832 5832 5832 5833 5833 5833 5834 5834 5834 5834 5834 5834 5835 5835 5834 5834 5834 5833 5833 5832
5797 5798 5798 5799 5801 5802 5803 5805 5806 5809 5811 5812 5812 5813 5813 5814 5815 5816 5817 5819 5819 5817 5815 5815 5817 5820 5821 5819 5817 5818 5817 5816 5816 5816 5816 5817 5817 5818 5818 5819 5820 5820 5821 5821 5820 5820 5819 5819 5819 5819 5818 5818 5819 5818 5817 5816 5816 5815 5815 5816 5816 5817 5818 5820 5822 5824 5825 5826 5826 5826 5827 5828 5828 5828 5828 5829 5829 5830 5830 5830 5831 5831 5832 5832 5832 5832 5832 5833 5833 5833 5833 5832 5832 5832 5831 5831 5831
5794 5795 5795 5797 5799 5800 5801 5803 5804 5806 5808 5810 5810 5811 5812 5812 5813 5814 5815 5816 5816 5815 5812 5813 5815 5816 5818 5817 5815 5816 5816 5815 5814 5814 5814 5815 5816 5816 5816 5817 5818 5819 5820 5819 5818 5817 5816 5816 5816 5816 5815 5816 5815 5814 5812 5811 5811 5812 5813 5813 5814 5815 5817 5818 5820 5821 5823 5823 5823 5824 5825 5825 5825 5825 5826 5826 5827 5828 5829 5829 5829 5829 5830 5830 5830 5830 5830 5830 5831 5830 5830 5830 5830 5830 5829 5829 5830
5791 5792 5793 5795 5796 5797 5799 5800 5802 5804 5805 5807 5808 5809 5809 5810 5811 5812 5813 5813 5813 5812 5810 5812 5815 5814 5815 5814 5812 5813 5814 5813 5813 5812 5812 5813 5814 5814 5813 5814 5815 5817 5817 5816 5814 5814 5813 5813 5813 5812 5812 5811 5811 5809 5808 5808 5809 5810 5811 5811 5812 5813 5814 5815 5817 5819 5820 5821 5821 5822 5823 5823 5823 5822 5823 5825 5826 5827 5827 5828 5828 5828 5828 5828 5828 5828 5828 5828 5828 5828 5828 5828 5828 5828 5828 5827 5830
5787 5789 5792 5793 5794 5795 5797 5798 5800 5801 5803 5804 5805 5806 5807 5808 5809 5809 5810 5809 5810 5810 5808 5812 5814 5813 5813 5812 5810 5810 5810 5811 5810 5810 5810 5810 5810 5811 5811 5811 5811 5812 5813 5812 5811 5810 5810 5809 5809 5809 5807 5807 5807 5806 5806 5807 5808 5809 5810 5810 5810 5810 5812 5813 5815 5817 5818 5819 5819 5820 5821 5821 5821 5821 5822 5823 5825 5826 5827 5827 5827 5826 5826 5826 5826 5826 5826 5826 5826 5826 5826 5826 5826 5827 5825 5826 5829
5785 5787 5789 5790 5792 5794 5795 5796 5798 5799 5800 5801 5802 5803 5805 5806 5806 5806 5807 5806 5807 5807 5806 5810 5812 5811 5811 5810 5809 5808 5807 5808 5807 5806 5807 5807 5807 5806 5807 5806 5807 5808 5808 5807 5807 5806 5806 5806 5805 5804 5803 5803 5804 5804 5804 5805 5805 5807 5808 5808 5808 5808 5810 5811 5813 5815 5816 5816 5817 5818 5819 5819 5819 5820 5821 5822 5824 5825 5825 5826 5826 5825 5825 5825 5824 5824 5824 5824 5824 5824 5824 5824 5825 5824 5824 5825 5827
5783 5785 5786 5788 5790 5791 5793 5794 5795 5796 5798 5798 5799 5801 5802 5803 5804 5804 5804 5804 5803 5803 5804 5808 5808 5807 5808 5807 5807 5805 5805 5805 5804 5803 5803 5803 5803 5802 5801 5801 5802 5803 5804 5803 5802 5802 5802 5802 5801 5800 5800 5800 5801 5802 5802 5802 5802 5803 5804 5805 5806 5806 5808 5809 5811 5813 5814 5815 5815 5816 5817 5817 5818 5819 5820 5821 5822 5823 5824 5824 5825 5824 5824 5823 5823 5823 5823 5823 5823 5823 5823 5823 5823 5823 5823 5824 5825
5780 5782 5784 5786 5788 5789 5789 5791 5792 5794 5795 5795 5796 5798 5799 5800 5801 5802 5801 5801 5800 5799 5802 5806 5805 5804 5804 5804 5804 5803 5803 5803 5802 5801 5800 5800 5800 5800 5799 5798 5798 5798 5798 5798 5798 5798 5798 5798 5797 5797 5797 5798 5798 5799 5799 5799 5799 5800 5801 5802 5804 5805 5806 5807 5809 5811 5812 5813 5814 5815 5815 5815 5817 5818 5819 5820 5820 5821 5822 5823 5822 5822 5822 5822 5822 5822 5822 5822 5822 5822 5822 5822 5821 5822 5823 5823 5823
5778 5779 5781 5784 5785 5786 5786 5788 5790 5791 5792 5792 5792 5795 5796 5797 5798 5798 5798 5799 5798 5796 5799 5802 5801 5802 5801 5801 5802 5801 5801 5801 5800 5799 5798 5799 5799 5800 5801 5800 5798 5798 5796 5795 5794 5793 5794 5794 5794 5794 5795 5795 5795 5795 5796 5797 5798 5799 5799 5800 5802 5803 5804 5806 5808 5810 5811 5812 5813 5813 5813 5814 5816 5817 5818 5819 5819 5820 5820 5820 5820 5820 5820 5820 5821 5821 5821 5821 5821 5821 5820 5820 5820 5821 5821 5821 5821
5776 5777 5780 5781 5783 5784 5783 5784 5786 5787 5788 5787 5788 5792 5794 5794 5794 5794 5794 5795 5794 5793 5796 5798 5797 5798 5799 5799 5800 5799 5799 5799 5798 5797 5797 5797 5798 5798 5799 5798 5797 5797 5797 5796 5795 5793 5791 5791 5791 5792 5793 5792 5791 5792 5794 5795 5796 5798 5797 5798 5800 5801 5802 5804 5806 5808 5809 5811 5812 5812 5812 5813 5815 5816 5817 5817 5817 5817 5817 5818 5818 5818 5818 5819 5820 5820 5820 5820 5820 5820 5819 5819 5819 5819 5819 5819 5820
5774 5776 5778 5778 5780 5781 5780 5781 5782 5784 5785 5784 5785 5788 5790 5793 5792 5791 5791 5791 5790 5791 5792 5793 5794 5795 5795 5796 5797 5796 5797 5796 5796 5797 5796 5796 5795 5796 5796 5795 5795 5794 5793 5793 5794 5793 5791 5789 5789 5790 5790 5790 5790 5791 5794 5795 5796 5797 5796 5797 5798 5799 5800 5802 5804 5806 5808 5809 5810 5810 5810 5812 5813 5814 5815 5815 5816 5816 5816 5817 5816 5816 5817 5818 5818 5818 5819 5819 5819 5819 5819 5819 5818 5818 5818 5818 5819
5772 5773 5775 5775 5776 5777 5778 5779 5779 5781 5782 5781 5782 5784 5785 5789 5789 5788 5789 5788 5787 5788 5789 5790 5791 5792 5792 5792 5793 5793 5793 5793 5793 5795 5795 5794 5794 5794 5793 5793 5792 5790 5789 5789 5790 5791 5791 5789 5789 5790 5790 5790 5790 5791 5794 5796 5796 5795 5795 5796 5796 5797 5798 5799 5801 5803 5806 5808 5808 5808 5808 5810 5811 5812 5813 5814 5815 5815 5815 5816 5815 5815 5816 5817 5817 5817 5817 5817 5818 5818 5819 5819 5818 5817 5817 5817 5818
5768 5769 5770 5771 5773 5775 5777 5778 5778 5779 5779 5778 5780 5780 5781 5784 5786 5786 5786 5786 5787 5786 5786 5787 5788 5789 5789 5790 5790 5790 5790 5789 5789 5791 5791 5791 5791 5791 5790 5789 5788 5786 5785 5787 5788 5789 5791 5791 5790 5791 5791 5790 5791 5793 5793 5793 5795 5795 5794 5795 5795 5796 5796 5797 5800 5802 5804 5805 5806 5806 5807 5808 5809 5810 5812 5813 5814 5814 5814 5814 5814 5814 5815 5816 5815 5815 5815 5816 5816 5817 5817 5818 5818 5817 5817 5816 5817
5764 5765 5766 5767 5769 5771 5775 5778 5778 5778 5778 5777 5777 5777 5778 5781 5783 5784 5783 5784 5784 5783 5783 5784 5784 5787 5787 5787 5787 5787 5786 5786 5786 5787 5787 5788 5788 5787 5786 5785 5785 5783 5783 5786 5787 5787 5789 5790 5790 5790 5790 5790 5790 5792 5792 5791 5794 5795 5794 5794 5794 5795 5796 5797 5799 5800 5802 5803 5804 5805 5806 5808 5809 5809 5810 5811 5812 5812 5812 5812 5812 5813 5814 5814 5814 5813 5814 5814 5815 5815 5815 5816 5816 5817 5816 5816 5817
5760 5761 5763 5764 5764 5766 5772 5776 5777 5777 5777 5777 5775 5774 5776 5777 5778 5781 5782 5782 5781 5781 5780 5779 5779 5782 5784 5784 5785 5784 5783 5783 5784 5785 5784 5785 5784 5783 5782 5782 5783 5781 5782 5785 5786 5784 5785 5788 5789 5789 5788 5788 5788 5790 5791 5791 5792 5793 5793 5794 5794 5794 5796 5797 5797 5797 5800 5801 5802 5804 5805 5807 5808 5809 5809 5810 5811 5811 5810 5810 5810 5811 5812 5812 5812 5812 5813 5813 5813 5813 5813 5814 5815 5814 5815 5815 5816
5758 5759 5760 5760 5760 5764 5769 5773 5775 5775 5775 5775 5774 5774 5774 5773 5773 5777 5779 5779 5778 5779 5778 5776 5775 5776 5780 5781 5782 5782 5781 5780 5781 5782 5782 5781 5781 5780 5780 5781 5781 5780 5781 5784 5785 5785 5786 5786 5787 5788 5788 5787 5787 5788 5789 5789 5791 5792 5792 5793 5794 5795 5795 5795 5795 5796 5799 5800 5801 5802 5804 5805 5806 5807 5807 5808 5809 5809 5808 5808 5809 5810 5810 5811 5811 5811 5812 5812 5812 5812 5812 5813 5813 5813 5813 5814 5814
5755 5756 5757 5757 5759 5764 5767 5769 5771 5771 5772 5773 5772 5771 5769 5768 5770 5773 5775 5776 5776 5777 5777 5775 5772 5772 5775 5778 5778 5779 5780 5779 5778 5778 5779 5778 5777 5778 5778 5779 5779 5778 5780 5783 5785 5786 5787 5786 5786 5788 5789 5788 5787 5787 5787 5789 5791 5792 5792 5792 5794 5795 5795 5796 5796 5797 5798 5798 5799 5800 5801 5803 5804 5804 5805 5806 5807 5806 5806 5807 5808 5809 5809 5810 5810 5811 5811 5811 5811 5811 5811 5812 5812 5812 5812 5812 5813
5751 5752 5753 5754 5758 5763 5765 5766 5767 5768 5769 5770 5769 5768 5765 5764 5767 5770 5772 5772 5773 5774 5775 5773 5770 5768 5771 5774 5775 5776 5777 5777 5776 5776 5776 5774 5773 5775 5776 5776 5777 5778 5779 5781 5782 5783 5784 5785 5785 5787 5788 5788 5787 5786 5787 5789 5790 5791 5793 5793 5793 5794 5795 5795 5796 5796 5796 5796 5796 5798 5799 5800 5801 5802 5803 5804 5804 5805 5805 5806 5807 5808 5808 5809 5809 5810 5810 5810 5811 5810 5810 5811 5811 5811 5811 5810 5811
5747 5749 5749 5750 5756 5760 5762 5763 5763 5764 5765 5766 5766 5765 5764 5763 5765 5768 5769 5769 5770 5771 5772 5773 5771 5767 5766 5769 5772 5772 5772 5772 5773 5774 5773 5771 5770 5771 5773 5774 5775 5776 5777 5780 5781 5780 5781 5782 5784 5785 5786 5786 5786 5786 5786 5787 5788 5789 5791 5792 5792 5793 5793 5794 5795 5795 5795 5795 5795 5796 5797 5798 5799 5800 5801 5802 5803 5803 5804 5805 5806 5806 5807 5807 5808 5808 5809 5809 5809 5809 5809 5809 5809 5809 5809 5809 5810
5742 5746 5748 5749 5754 5757 5759 5760 5759 5759 5761 5762 5763 5762 5761 5761 5763 5766 5767 5767 5768 5768 5769 5771 5771 5768 5765 5766 5768 5768 5768 5768 5768 5769 5769 5768 5768 5769 5771 5773 5773 5774 5775 5777 5779 5779 5779 5780 5782 5784 5784 5783 5783 5784 5784 5785 5785 5786 5788 5789 5790 5791 5792 5793 5794 5794 5794 5794 5794 5795 5795 5796 5797 5798 5799 5800 5801 5802 5803 5804 5804 5805 5805 5805 5806 5806 5806 5807 5807 5807 5808 5808 5807 5807 5808 5808 5808
5738 5744 5747 5747 5751 5753 5755 5756 5755 5757 5760 5760 5760 5759 5758 5759 5762 5764 5764 5764 5765 5765 5765 5765 5766 5766 5764 5764 5765 5766 5765 5765 5765 5765 5765 5766 5767 5766 5768 5771 5772 5771 5772 5774 5776 5777 5777 5777 5780 5783 5783 5781 5781 5781 5782 5782 5783 5784 5785 5786 5787 5788 5790 5791 5792 5792 5792 5793 5793 5793 5794 5794 5795 5796 5797 5798 5799 5800 5801 5802 5803 5804 5803 5803 5804 5804 5804 5805 5806 5806 5806 5806 5806 5806 5807 5807 5808
5736 5741 5743 5744 5747 5750 5751 5752 5752 5755 5756 5755 5757 5757 5756 5758 5762 5762 5761 5762 5763 5761 5761 5760 5760 5762 5761 5762 5763 5763 5764 5764 5764 5764 5763 5764 5765 5765 5766 5770 5770 5769 5770 5771 5773 5775 5775 5774 5777 5780 5781 5779 5779 5779 5780 5780 5780 5780 5782 5783 5784 5785 5786 5787 5789 5789 5790 5790 5791 5791 5792 5793 5793 5794 5795 5796 5796 5797 5798 5800 5802 5803 5802 5802 5802 5802 5802 5803 5804 5804 5804 5804 5805 5805 5806 5807 5807
5734 5737 5739 5741 5743 5745 5746 5747 5748 5750 5750 5751 5755 5756 5755 5757 5759 5760 5759 5759 5760 5759 5759 5758 5759 5760 5760 5759 5760 5760 5762 5763 5762 5762 5762 5761 5762 5763 5765 5767 5768 5768 5768 5769 5770 5771 5771 5771 5773 5775 5777 5777 5777 5777 5777 5776 5776 5778 5779 5779 5780 5781 5782 5784 5785 5785 5786 5787 5788 5789 5789 5791 5792 5793 5794 5794 5795 5795 5796 5798 5799 5800 5800 5799 5800 5800 5801 5802 5802 5802 5803 5803 5804 5804 5805 5806 5806
5732 5734 5736 5738 5739 5740 5742 5743 5745 5746 5746 5748 5753 5754 5754 5754 5756 5756 5755 5755 5757 5758 5757 5757 5758 5758 5758 5758 5757 5758 5759 5760 5758 5758 5758 5758 5759 5761 5762 5764 5765 5765 5765 5766 5766 5766 5767 5767 5768 5771 5774 5775 5775 5775 5774 5774 5774 5775 5776 5777 5777 5778 5779 5780 5781 5782 5783 5784 5785 5786 5787 5788 5789 5790 5791 5792 5793 5793 5794 5796 5797 5797 5797 5797 5797 5799 5799 5800 5800 5800 5801 5802 5802 5803 5804 5805 5805
5730 5732 5734 5735 5737 5739 5739 5740 5742 5742 5744 5748 5750 5751 5751 5751 5751 5751 5751 5753 5754 5756 5756 5756 5756 5757 5757 5757 5756 5756 5757 5756 5754 5754 5754 5755 5756 5757 5758 5760 5761 5762 5761 5761 5760 5758 5759 5762 5765 5768 5771 5772 5773 5773 5773 5772 5772 5773 5774 5775 5775 5775 5775 5777 5778 5779 5780 5781 5782 5783 5784 5785 5786 5787 5788 5790 5791 5791 5792 5794 5794 5795 5796 5795 5796 5797 5797 5797 5798 5798 5799 5800 5801 5802 5802 5803 5804
5727 5729 5730 5732 5734 5736 5736 5737 5739 5740 5743 5746 5747 5747 5748 5747 5747 5747 5749 5751 5752 5753 5753 5753 5754 5755 5755 5754 5753 5753 5754 5752 5751 5750 5750 5751 5752 5752 5754 5755 5755 5755 5754 5753 5752 5751 5753 5758 5763 5767 5769 5770 5771 5772 5771 5771 5770 5770 5771 5772 5772 5771 5772 5773 5775 5776 5777 5778 5780 5781 5782 5782 5783 5784 5786 5787 5788 5789 5790 5792 5792 5794 5794 5794 5794 5795 5795 5795 5796 5797 5798 5799 5800 5800 5801 5801 5802
5724 5726 5727 5729 5731 5732 5733 5734 5736 5739 5742 5743 5743 5744 5744 5743 5743 5745 5747 5748 5749 5750 5751 5751 5751 5751 5752 5751 5751 5751 5751 5750 5749 5748 5748 5749 5750 5749 5750 5750 5749 5749 5747 5746 5748 5751 5753 5756 5762 5766 5767 5767 5768 5769 5770 5770 5769 5769 5769 5769 5769 5768 5768 5770 5772 5773 5774 5776 5777 5779 5780 5780 5781 5782 5783 5785 5786 5787 5788 5790 5791 5792 5792 5792 5792 5793 5793 5794 5794 5795 5796 5797 5798 5798 5799 5799 5800
5722 5723 5725 5727 5728 5730 5731 5733 5735 5737 5738 5739 5739 5740 5740 5741 5742 5743 5745 5745 5746 5747 5748 5748 5747 5748 5749 5749 5748 5748 5747 5747 5747 5746 5747 5748 5748 5747 5747 5746 5745 5745 5745 5745 5746 5750 5752 5755 5760 5764 5764 5764 5764 5765 5767 5767 5767 5767 5768 5768 5768 5766 5765 5767 5769 5770 5772 5773 5775 5776 5778 5778 5779 5780 5781 5783 5784 5785 5786 5788 5790 5790 5790 5789 5790 5791 5792 5792 5793 5794 5795 5796 5796 5797 5797 5798 5798
5719 5721 5722 5724 5726 5728 5730 5732 5733 5734 5735 5736 5737 5737 5738 5739 5740 5741 5743 5743 5743 5744 5744 5745 5745 5745 5747 5746 5745 5745 5744 5745 5745 5744 5744 5745 5745 5745 5745 5743 5742 5742 5743 5743 5744 5746 5749 5753 5758 5760 5760 5760 5760 5761 5762 5764 5764 5765 5766 5767 5767 5766 5764 5765 5767 5769 5770 5772 5773 5774 5776 5777 5777 5778 5780 5781 5782 5783 5785 5787 5788 5788 5788 5788 5788 5789 5790 5791 5792 5793 5794 5795 5795 5795 5796 5796 5797
5717 5718 5719 5722 5724 5726 5727 5729 5731 5731 5732 5733 5734 5735 5736 5737 5738 5738 5740 5740 5740 5741 5742 5742 5742 5742 5743 5743 5742 5742 5741 5741 5741 5741 5741 5741 5741 5741 5741 5740 5739 5739 5740 5741 5741 5744 5747 5751 5753 5755 5756 5757 5756 5757 5758 5760 5760 5762 5763 5764 5766 5765 5764 5764 5766 5768 5769 5770 5771 5773 5774 5775 5776 5777 5778 5779 5780 5782 5783 5784 5785 5785 5786 5786 5787 5788 5788 5790 5791 5791 5792 5793 5793 5794 5794 5795 5795
5715 5716 5718 5722 5723 5723 5724 5726 5728 5729 5729 5730 5731 5733 5734 5734 5735 5735 5737 5737 5737 5738 5739 5739 5739 5739 5739 5739 5739 5738 5738 5738 5738 5738 5738 5738 5738 5738 5737 5737 5736 5737 5738 5738 5739 5741 5744 5746 5748 5751 5753 5753 5754 5754 5755 5757 5758 5760 5760 5761 5764 5765 5764 5764 5765 5767 5767 5768 5769 5771 5772 5773 5774 5774 5775 5777 5778 5780 5781 5782 5782 5783 5784 5784 5786 5786 5787 5788 5789 5790 5791 5791 5792 5793 5793 5793 5794
5714 5715 5717 5719 5721 5722 5723 5724 5724 5726 5727 5727 5729 5730 5730 5731 5732 5733 5733 5733 5734 5735 5736 5736 5736 5736 5736 5736 5736 5736 5736 5736 5736 5736 5735 5735 5735 5735 5735 5735 5735 5735 5735 5735 5736 5737 5739 5742 5745 5748 5749 5750 5752 5753 5754 5755 5757 5759 5759 5758 5760 5762 5762 5763 5764 5765 5765 5766 5767 5769 5770 5770 5771 5772 5773 5775 5776 5777 5779 5780 5780 5781 5782 5783 5784 5785 5785 5786 5787 5788 5789 5789 5790 5791 5791 5791 5791
5711 5713 5713 5715 5718 5719 5720 5721 5722 5724 5725 5725 5727 5727 5727 5727 5728 5729 5730 5730 5732 5733 5733 5732 5732 5732 5733 5734 5734 5734 5735 5735 5734 5734 5734 5734 5733 5733 5734 5735 5735 5734 5732 5732 5734 5736 5737 5740 5742 5744 5745 5748 5750 5751 5752 5752 5754 5756 5756 5755 5757 5759 5760 5761 5762 5762 5763 5763 5765 5766 5767 5768 5769 5771 5772 5773 5774 5775 5777 5778 5778 5779 5780 5781 5782 5783 5783 5784 5785 5786 5787 5788 5788 5789 5789 5789 5789
5709 5711 5711 5712 5714 5716 5718 5719 5720 5722 5723 5723 5724 5724 5724 5725 5726 5727 5728 5729 5730 5731 5730 5730 5730 5730 5731 5731 5732 5732 5733 5733 5733 5733 5734 5734 5732 5732 5733 5734 5734 5733 5732 5733 5735 5737 5739 5740 5741 5742 5744 5746 5747 5748 5749 5749 5751 5753 5754 5754 5755 5756 5757 5758 5759 5760 5760 5761 5762 5764 5765 5766 5768 5770 5770 5771 5772 5773 5775 5776 5776 5777 5778 5779 5780 5780 5781 5782 5783 5784 5785 5786 5786 5787 5787 5787 5787
5707 5709 5711 5712 5713 5714 5715 5716 5718 5719 5719 5720 5720 5720 5721 5722 5724 5726 5726 5727 5728 5728 5729 5728 5728 5728 5728 5728 5728 5729 5730 5730 5730 5730 5732 5733 5732 5731 5732 5733 5733 5733 5733 5735 5736 5737 5739 5740 5741 5742 5743 5744 5744 5745 5745 5746 5748 5749 5751 5752 5753 5754 5755 5756 5757 5758 5758 5759 5761 5762 5763 5765 5767 5768 5768 5769 5770 5771 5773 5773 5774 5775 5775 5776 5777 5778 5779 5780 5781 5782 5783 5783 5784 5784 5785 5785 5786